Regional Weather Roundup
Issued by NWS

Home | Current Version | Previous Version | Text Only | Print | Product List | Glossary Off
Versions: 1 2 3 4 5 6 7 8 9 10 11 12 13 14 15 16 17 18 19 20 21 22 23 24 25 26 27 28 29 30 31 32 33 34 35 36 37 38 39 40 41 42 43 44 45 46 47 48 49 50

000
ASUS43 KIND 280509
RWRIN

WEATHER ROUNDUP FOR INDIANA
NATIONAL WEATHER SERVICE INDIANAPOLIS IN
100 AM EDT WED SEP 28 2016

NOTE: "FAIR" INDICATES FEW OR NO CLOUDS BELOW 12,000 FEET WITH NO
SIGNIFICANT WEATHER AND/OR OBSTRUCTIONS TO VISIBILITY.

* - STATION DOES NOT REPORT WEATHER SUCH AS PRECIPITATION OR FOG.

+ - STATION NOT QUALITY CONTROLLED BY THE NATIONAL WEATHER SERVICE.
    USE DATA WITH CAUTION...ESPECIALLY DEWPOINT AND RELATIVE
    HUMIDITY OBSERVATIONS.

INZ001>003-010>013-019-020-280600-
NORTHWEST INDIANA

CITY           SKY/WX    TMP DP  RH WIND       PRES   REMARKS
GARY /AIRPORT/ CLOUDY    54  46  74 S3        29.77F
KNOX *+        PTCLDY    46  32  57 SE3       29.77F
LA PORTE +     MOCLDY    52  48  86 CALM      29.78F
MICHIGAN CITY+ PTCLDY    52  46  82 MISG      29.79S
MONTICELLO +   PTCLDY    50  38  65 CALM      29.78S
RENSSELAER +   MOCLDY    48  45  87 CALM      29.78F
VALPARAISO     MOCLDY    51  41  68 CALM      29.77F

$$

LMZ046-743>745-280600-
SOUTHERN LAKE MICHIGAN

STATION/POSITION TIME  TEMP    WIND        PRES    WAVE
                       AIR SEA DIR/SP/G            HT
                 (UTC) (F)     (DEG/KT/KT) (MB)    (FT)
BURNS HARBOR     0405   60     190/  5/ 10 1008.5F
MICHIGAN CITY    0400   58      80/  7/  8   N/A
5NW MICH CITY    0500   60 67  100/ 14/ 17   N/A     2

$$

INZ004-005-014>016-021>024-280600-
NORTH CENTRAL INDIANA

CITY           SKY/WX    TMP DP  RH WIND       PRES   REMARKS
GOSHEN         MOCLDY    51  43  74 E7        29.79F
LOGANSPORT +   PTCLDY    46  41  81 SE3       29.80F
PERU/GRISSOM   PTCLDY    51  42  73 S5        29.78F
ROCHESTER +    PTCLDY    50  45  81 E3        29.79S
SOUTH BEND     PTCLDY    54  47  77 E3        29.79F
WARSAW +       PTCLDY    46  36  66 CALM      29.79F

$$

INZ006>009-017-018-025>027-280600-
NORTHEAST INDIANA

CITY           SKY/WX    TMP DP  RH WIND       PRES   REMARKS
ANGOLA *+        N/A     46  34  61 CALM      29.81S
AUBURN +       MOCLDY    46  41  81 CALM      29.81S
FORT WAYNE     MOCLDY    50  43  77 S5        29.81F
HUNTINGTON +   PTCLDY    50  45  83 CALM      29.81S
KENDALLVILLE + MOCLDY    46  43  90 N3        29.81S

$$

INZ028-029-035-036-043>045-051>053-280600-
WEST CENTRAL INDIANA

CITY           SKY/WX    TMP DP  RH WIND       PRES   REMARKS
CRAWFORDSVL +  MOCLDY    56  49  79 S5        29.81F
GREENCASTLE +  CLOUDY    54  54 100 S3        29.82F
LAFAYETTE      PTCLDY    50  45  83 CALM      29.79F
TERRE HAUTE    MOCLDY    61  50  67 SW6       29.82F

$$

INZ030>032-037>040-046>048-054>057-064-065-280600-
CENTRAL INDIANA

CITY           SKY/WX    TMP DP  RH WIND       PRES   REMARKS
FRANKFORT +    CLOUDY    55  47  76 SW3       29.82F
GREENWOOD *+   PTCLDY    59  50  72 SW3       29.83F
INDIANAPOLIS   MOCLDY    59  50  72 SW6       29.81F
-EAGLE CREEK   MOCLDY    60  49  66 S6        29.81F
MARION +       PTCLDY    49  43  79 CALM      29.82S HAZE
MT COMFORT *+  MOCLDY    54  48  82 CALM      29.83S
SHELBYVILLE    MOCLDY    59  51  75 S5        29.82F
ZIONSVILLE +   CLOUDY    53  50  88 CALM      29.82F

$$

INZ033-034-041-042-049-050-058-059-280600-
EAST CENTRAL INDIANA

CITY           SKY/WX    TMP DP  RH WIND       PRES   REMARKS
MUNCIE         PTCLDY    59  48  67 S6        29.82F

$$

INZ060-061-067>069-081>083-085>088-280600-
SOUTHWEST INDIANA

CITY           SKY/WX    TMP DP  RH WIND       PRES   REMARKS
EVANSVILLE     CLEAR     59  52  77 SW5       29.88S
HUNTINGBURG *+   N/A     61  48  63 S9        29.88S
WASHINGTON +   CLEAR     60  53  75 MISG      29.84F

$$

INZ062-063-066-070>080-084-089>092-280600-
SOUTH CENTRAL AND SOUTHEAST INDIANA

CITY           SKY/WX    TMP DP  RH WIND       PRES   REMARKS
BLOOMINGTON    CLOUDY    61  49  64 SW6       29.84F
MADISON *+     CLEAR     55  48  76 S5        29.89F
NORTH VERNON + CLEAR     59  55  88 S6        29.87F
SEYMOUR +      CLEAR     55  50  82 CALM      29.85F

$$





USA.gov is the U.S. government's official web portal to all federal, state and local government web resources and services.